Location: 22
(39.7117°N, 89.5929°W)
Time: 17:11:13
(UTC-06:00)

N. Korean satellite - Visible Passes

Search period start: 30 November 2022 00:00
Search period end: 10 December 2022 00:00
Orbit: 421 x 453 km, 97.3° (Epoch: 30 November)

Date Brightness Start Highest point End Pass type
(mag) Time Alt. Az. Time Alt. Az. Time Alt. Az.
30 Nov 8.3 04:48:04 10° NNE 04:51:10 31° E 04:54:13 10° SSE visible
30 Nov 8.2 06:21:41 10° NW 06:23:22 13° WNW 06:25:02 10° W visible
01 Dec 6.8 05:41:40 10° N 05:44:53 40° WNW 05:48:04 10° SW visible
02 Dec 7.2 05:02:49 10° NNE 05:06:10 52° E 05:09:27 10° S visible
02 Dec 8.8 17:03:52 10° SSW 17:06:48 28° W 17:09:48 10° NW visible
03 Dec 9.5 04:25:06 10° NE 04:27:11 15° E 04:29:16 10° SE visible
03 Dec 7.4 05:56:50 10° NNW 05:59:42 25° WNW 06:02:31 10° SW visible
04 Dec 6.3 05:17:35 10° NNE 05:21:00 88° ESE 05:24:21 10° SSW visible
04 Dec 9.5 17:19:16 10° SW 17:21:40 18° W 17:24:07 10° NW visible
05 Dec 8.8 04:39:15 10° NE 04:42:02 23° E 04:44:47 10° SSE visible
05 Dec 7.9 06:12:06 10° NNW 06:14:21 17° WNW 06:16:35 10° WSW visible
06 Dec 6.4 05:32:20 10° N 05:35:39 55° WNW 05:38:55 10° SSW visible
06 Dec 9.9 17:35:05 10° WSW 17:36:26 12° W 17:37:48 10° WNW visible
07 Dec 7.9 04:53:32 10° NNE 04:56:43 37° E 04:59:50 10° SSE visible
07 Dec 8.4 06:27:46 10° NW 06:28:49 11° WNW 06:29:52 10° W visible
08 Dec 9.9 04:16:25 10° ENE 04:17:31 11° E 04:18:36 10° ESE visible
08 Dec 7.0 05:47:04 10° N 05:50:09 33° WNW 05:53:11 10° SW visible
09 Dec 6.8 05:07:52 10° NNE 05:11:13 61° E 05:14:30 10° S visible
09 Dec 9.1 17:08:56 10° SSW 17:11:46 25° W 17:14:37 10° NW visible
